Year,Month,Day,Hour,Minute,Value (Times are PST for windspeed in km/hr)
2010,04,02,00,00,11.00
2010,04,02,00,01,9.60
2010,04,02,00,02,9.60
2010,04,02,00,03,12.60
2010,04,02,00,04,10.10
2010,04,02,00,05,7.30
2010,04,02,00,06,12.20
2010,04,02,00,07,12.20
2010,04,02,00,08,8.70
2010,04,02,00,09,8.00
2010,04,02,00,10,9.50
2010,04,02,00,11,8.00
2010,04,02,00,12,7.70
2010,04,02,00,13,12.60
2010,04,02,00,14,12.30
2010,04,02,00,15,7.40
2010,04,02,00,16,7.60
2010,04,02,00,17,5.40
2010,04,02,00,18,4.90
2010,04,02,00,19,7.70
2010,04,02,00,20,8.40
2010,04,02,00,21,5.30
2010,04,02,00,22,7.40
2010,04,02,00,23,13.00
2010,04,02,00,24,7.60
2010,04,02,00,25,7.60
2010,04,02,00,26,8.50
2010,04,02,00,27,4.70
2010,04,02,00,28,6.00
2010,04,02,00,29,4.80
2010,04,02,00,30,7.90
2010,04,02,00,31,11.30
2010,04,02,00,32,9.30
2010,04,02,00,33,8.80
2010,04,02,00,34,7.30
2010,04,02,00,35,9.30
2010,04,02,00,36,10.30
2010,04,02,00,37,8.60
2010,04,02,00,38,8.90
2010,04,02,00,39,9.70
2010,04,02,00,40,7.70
2010,04,02,00,41,12.40
2010,04,02,00,42,9.80
2010,04,02,00,43,6.40
2010,04,02,00,44,16.70
2010,04,02,00,45,14.00
2010,04,02,00,46,15.90
2010,04,02,00,47,14.30
2010,04,02,00,48,12.40
2010,04,02,00,49,13.60
2010,04,02,00,50,13.50
2010,04,02,00,51,13.70
2010,04,02,00,52,10.90
2010,04,02,00,53,11.00
2010,04,02,00,54,14.00
2010,04,02,00,55,11.60
2010,04,02,00,56,10.60
2010,04,02,00,57,11.00
2010,04,02,00,58,9.30
2010,04,02,00,59,12.60
2010,04,02,01,00,9.70
2010,04,02,01,01,7.10
2010,04,02,01,02,6.10
2010,04,02,01,03,6.70
2010,04,02,01,04,11.40
2010,04,02,01,05,8.80
2010,04,02,01,06,5.60
2010,04,02,01,07,8.10
2010,04,02,01,08,10.30
2010,04,02,01,09,15.40
2010,04,02,01,10,12.50
2010,04,02,01,11,12.10
2010,04,02,01,12,9.90
2010,04,02,01,13,14.60
2010,04,02,01,14,11.10
2010,04,02,01,15,11.70
2010,04,02,01,16,10.90
2010,04,02,01,17,12.40
2010,04,02,01,18,11.40
2010,04,02,01,19,12.90
2010,04,02,01,20,17.10
2010,04,02,01,21,8.20
2010,04,02,01,22,10.10
2010,04,02,01,23,18.10
2010,04,02,01,24,20.00
2010,04,02,01,25,13.90
2010,04,02,01,26,18.80
2010,04,02,01,27,10.90
2010,04,02,01,28,14.40
2010,04,02,01,29,10.50
2010,04,02,01,30,11.50
2010,04,02,01,31,15.30
2010,04,02,01,32,12.00
2010,04,02,01,33,13.40
2010,04,02,01,34,7.60
2010,04,02,01,35,13.00
2010,04,02,01,36,11.30
2010,04,02,01,37,16.50
2010,04,02,01,38,12.90
2010,04,02,01,39,8.20
2010,04,02,01,40,10.50
2010,04,02,01,41,11.90
2010,04,02,01,42,9.70
2010,04,02,01,43,8.00
2010,04,02,01,44,7.10
2010,04,02,01,45,7.20
2010,04,02,01,46,7.20
2010,04,02,01,47,9.10
2010,04,02,01,48,11.90
2010,04,02,01,49,18.70
2010,04,02,01,50,9.70
2010,04,02,01,51,7.10
2010,04,02,01,52,9.00
2010,04,02,01,53,9.30
2010,04,02,01,54,12.30
2010,04,02,01,55,12.50
2010,04,02,01,56,13.30
2010,04,02,01,57,11.80
2010,04,02,01,58,13.20
2010,04,02,01,59,9.70
2010,04,02,02,00,7.90
2010,04,02,02,01,11.40
2010,04,02,02,02,10.90
2010,04,02,02,03,10.60
2010,04,02,02,04,11.10
2010,04,02,02,05,9.30
2010,04,02,02,06,7.90
2010,04,02,02,07,7.90
2010,04,02,02,08,16.10
2010,04,02,02,09,10.10
2010,04,02,02,10,11.30
2010,04,02,02,11,7.00
2010,04,02,02,12,11.30
2010,04,02,02,13,13.30
2010,04,02,02,14,8.30
2010,04,02,02,15,10.20
2010,04,02,02,16,6.80
2010,04,02,02,17,6.60
2010,04,02,02,18,8.10
2010,04,02,02,19,9.00
2010,04,02,02,20,7.60
2010,04,02,02,21,4.60
2010,04,02,02,22,11.40
2010,04,02,02,23,11.40
2010,04,02,02,24,13.00
2010,04,02,02,25,7.80
2010,04,02,02,26,6.80
2010,04,02,02,27,10.00
2010,04,02,02,28,8.40
2010,04,02,02,29,9.50
2010,04,02,02,30,8.90
2010,04,02,02,31,11.00
2010,04,02,02,32,8.90
2010,04,02,02,33,6.10
2010,04,02,02,34,6.80
2010,04,02,02,35,7.60
2010,04,02,02,36,8.30
2010,04,02,02,37,8.70
2010,04,02,02,38,7.20
2010,04,02,02,39,15.30
2010,04,02,02,40,12.40
2010,04,02,02,41,8.40
2010,04,02,02,42,7.50
2010,04,02,02,43,14.50
2010,04,02,02,44,14.20
2010,04,02,02,45,13.00
2010,04,02,02,46,9.70
2010,04,02,02,47,13.30
2010,04,02,02,48,10.50
2010,04,02,02,49,8.60
2010,04,02,02,50,7.80
2010,04,02,02,51,16.30
2010,04,02,02,52,14.60
2010,04,02,02,53,7.70
2010,04,02,02,54,12.60
2010,04,02,02,55,13.80
2010,04,02,02,56,11.50
2010,04,02,02,57,11.30
2010,04,02,02,58,16.50
2010,04,02,02,59,15.10
2010,04,02,03,00,9.90
2010,04,02,03,01,8.50
2010,04,02,03,02,14.90
2010,04,02,03,03,10.10
2010,04,02,03,04,14.30
2010,04,02,03,05,11.70
2010,04,02,03,06,14.20
2010,04,02,03,07,14.50
2010,04,02,03,08,10.10
2010,04,02,03,09,7.90
2010,04,02,03,10,6.10
2010,04,02,03,11,10.90
2010,04,02,03,12,9.90
2010,04,02,03,13,10.50
2010,04,02,03,14,8.40
2010,04,02,03,15,8.80
2010,04,02,03,16,7.70
2010,04,02,03,17,8.70
2010,04,02,03,18,16.00
2010,04,02,03,19,10.50
2010,04,02,03,20,12.60
2010,04,02,03,21,7.90
2010,04,02,03,22,7.40
2010,04,02,03,23,17.00
2010,04,02,03,24,17.10
2010,04,02,03,25,15.80
2010,04,02,03,26,11.30
2010,04,02,03,27,12.00
2010,04,02,03,28,9.40
2010,04,02,03,29,9.90
2010,04,02,03,30,12.00
2010,04,02,03,31,14.90
2010,04,02,03,32,6.80
2010,04,02,03,33,8.50
2010,04,02,03,34,8.10
2010,04,02,03,35,12.90
2010,04,02,03,36,11.20
2010,04,02,03,37,7.00
2010,04,02,03,38,6.10
2010,04,02,03,39,6.50
2010,04,02,03,40,10.90
2010,04,02,03,41,13.20
2010,04,02,03,42,8.20
2010,04,02,03,43,8.80
2010,04,02,03,44,8.80
2010,04,02,03,45,7.80
2010,04,02,03,46,5.30
2010,04,02,03,47,7.60
2010,04,02,03,48,10.80
2010,04,02,03,49,10.90
2010,04,02,03,50,10.90
2010,04,02,03,51,8.20
2010,04,02,03,52,8.40
2010,04,02,03,53,10.80
2010,04,02,03,54,8.20
2010,04,02,03,55,10.40
2010,04,02,03,56,10.50
2010,04,02,03,57,9.50
2010,04,02,03,58,11.10
2010,04,02,03,59,9.20
2010,04,02,04,00,9.40
2010,04,02,04,01,9.70
2010,04,02,04,02,12.10
2010,04,02,04,03,9.70
2010,04,02,04,04,8.90
2010,04,02,04,05,12.10
2010,04,02,04,06,8.50
2010,04,02,04,07,10.60
2010,04,02,04,08,13.00
2010,04,02,04,09,7.10
2010,04,02,04,10,6.00
2010,04,02,04,11,8.70
2010,04,02,04,12,7.40
2010,04,02,04,13,10.90
2010,04,02,04,14,10.20
2010,04,02,04,15,8.70
2010,04,02,04,16,10.50
2010,04,02,04,17,15.50
2010,04,02,04,18,14.20
2010,04,02,04,19,7.80
2010,04,02,04,20,8.80
2010,04,02,04,21,4.90
2010,04,02,04,22,14.90
2010,04,02,04,23,12.00
2010,04,02,04,24,10.10
2010,04,02,04,25,7.20
2010,04,02,04,26,6.40
2010,04,02,04,27,10.00
2010,04,02,04,28,11.00
2010,04,02,04,29,11.90
2010,04,02,04,30,13.80
2010,04,02,04,31,10.50
2010,04,02,04,32,8.50
2010,04,02,04,33,16.00
2010,04,02,04,34,8.10
2010,04,02,04,35,7.70
2010,04,02,04,36,9.90
2010,04,02,04,37,9.80
2010,04,02,04,38,14.00
2010,04,02,04,39,11.80
2010,04,02,04,40,15.50
2010,04,02,04,41,8.80
2010,04,02,04,42,14.90
2010,04,02,04,43,10.80
2010,04,02,04,44,13.90
2010,04,02,04,45,8.90
2010,04,02,04,46,16.80
2010,04,02,04,47,14.80
2010,04,02,04,48,15.60
2010,04,02,04,49,7.70
2010,04,02,04,50,13.10
2010,04,02,04,51,12.80
2010,04,02,04,52,12.60
2010,04,02,04,53,11.30
2010,04,02,04,54,18.60
2010,04,02,04,55,15.60
2010,04,02,04,56,16.00
2010,04,02,04,57,15.60
2010,04,02,04,58,9.00
2010,04,02,04,59,8.70
2010,04,02,05,00,14.50
2010,04,02,05,01,18.30
2010,04,02,05,02,12.30
2010,04,02,05,03,16.30
2010,04,02,05,04,23.80
2010,04,02,05,05,10.50
2010,04,02,05,06,13.60
2010,04,02,05,07,10.80
2010,04,02,05,08,18.10
2010,04,02,05,09,17.70
2010,04,02,05,10,12.40
2010,04,02,05,11,11.60
2010,04,02,05,12,17.50
2010,04,02,05,13,16.40
2010,04,02,05,14,10.80
2010,04,02,05,15,12.20
2010,04,02,05,16,18.10
2010,04,02,05,17,13.90
2010,04,02,05,18,16.70
2010,04,02,05,19,18.20
2010,04,02,05,20,16.60
2010,04,02,05,21,11.50
2010,04,02,05,22,21.60
2010,04,02,05,23,18.80
2010,04,02,05,24,14.60
2010,04,02,05,25,16.20
2010,04,02,05,26,19.80
2010,04,02,05,27,14.20
2010,04,02,05,28,12.50
2010,04,02,05,29,11.20
2010,04,02,05,30,12.80
2010,04,02,05,31,14.00
2010,04,02,05,32,19.00
2010,04,02,05,33,20.00
2010,04,02,05,34,18.20
2010,04,02,05,35,13.00
2010,04,02,05,36,13.60
2010,04,02,05,37,11.40
2010,04,02,05,38,12.60
2010,04,02,05,39,12.60
2010,04,02,05,40,10.70
2010,04,02,05,41,15.40
2010,04,02,05,42,10.20
2010,04,02,05,43,11.50
2010,04,02,05,44,9.40
2010,04,02,05,45,8.80
2010,04,02,05,46,11.70
2010,04,02,05,47,15.00
2010,04,02,05,48,11.20
2010,04,02,05,49,13.60
2010,04,02,05,50,19.10
2010,04,02,05,51,9.90
2010,04,02,05,52,8.10
2010,04,02,05,53,8.10
2010,04,02,05,54,8.10
2010,04,02,05,55,8.10
2010,04,02,05,56,8.10
2010,04,02,05,57,8.10
2010,04,02,05,58,13.60
2010,04,02,05,59,16.70
2010,04,02,06,00,12.50
2010,04,02,06,01,6.90
2010,04,02,06,02,8.90
2010,04,02,06,03,16.60
2010,04,02,06,04,9.30
2010,04,02,06,05,13.20
2010,04,02,06,06,11.50
2010,04,02,06,07,12.60
2010,04,02,06,08,14.70
2010,04,02,06,09,9.70
2010,04,02,06,10,10.80
2010,04,02,06,11,9.70
2010,04,02,06,12,11.50
2010,04,02,06,13,10.30
2010,04,02,06,14,11.60
2010,04,02,06,15,9.00
2010,04,02,06,16,10.40
2010,04,02,06,17,12.00
2010,04,02,06,18,7.20
2010,04,02,06,19,10.10
2010,04,02,06,20,13.30
2010,04,02,06,21,12.20
2010,04,02,06,22,12.30
2010,04,02,06,23,12.30
2010,04,02,06,24,13.80
2010,04,02,06,25,7.60
2010,04,02,06,26,10.50
2010,04,02,06,27,20.90
2010,04,02,06,28,16.00
2010,04,02,06,29,19.20
2010,04,02,06,30,20.80
2010,04,02,06,31,22.90
2010,04,02,06,32,20.00
2010,04,02,06,33,23.70
2010,04,02,06,34,20.00
2010,04,02,06,35,14.40
2010,04,02,06,36,22.70
2010,04,02,06,37,20.30
2010,04,02,06,38,21.90
2010,04,02,06,39,26.50
2010,04,02,06,40,24.20
2010,04,02,06,41,26.90
2010,04,02,06,42,30.30
2010,04,02,06,43,24.50
2010,04,02,06,44,22.20
2010,04,02,06,45,20.10
2010,04,02,06,46,16.60
2010,04,02,06,47,18.90
2010,04,02,06,48,23.90
2010,04,02,06,49,29.90
2010,04,02,06,50,17.70
2010,04,02,06,51,17.80
2010,04,02,06,52,20.80
2010,04,02,06,53,23.10
2010,04,02,06,54,23.50
2010,04,02,06,55,23.60
2010,04,02,06,56,20.80
2010,04,02,06,57,26.80
2010,04,02,06,58,26.30
2010,04,02,06,59,24.90
2010,04,02,07,00,23.50
2010,04,02,07,01,26.10
2010,04,02,07,02,29.40
2010,04,02,07,03,20.00
2010,04,02,07,04,23.00
2010,04,02,07,05,24.10
2010,04,02,07,06,25.70
2010,04,02,07,07,21.00
2010,04,02,07,08,25.80
2010,04,02,07,09,23.40
2010,04,02,07,10,26.60
2010,04,02,07,11,21.90
2010,04,02,07,12,31.00
2010,04,02,07,13,31.30
2010,04,02,07,14,27.60
2010,04,02,07,15,22.00
2010,04,02,07,16,23.10
2010,04,02,07,17,21.40
2010,04,02,07,18,19.10
2010,04,02,07,19,23.00
2010,04,02,07,20,24.60
2010,04,02,07,21,29.50
2010,04,02,07,22,35.30
2010,04,02,07,23,26.70
2010,04,02,07,24,33.90
2010,04,02,07,25,24.10
2010,04,02,07,26,23.70
2010,04,02,07,27,22.90
2010,04,02,07,28,19.80
2010,04,02,07,29,15.40
2010,04,02,07,30,18.00
2010,04,02,07,31,23.90
2010,04,02,07,32,28.40
2010,04,02,07,33,32.20
2010,04,02,07,34,29.00
2010,04,02,07,35,31.30
2010,04,02,07,36,30.40
2010,04,02,07,37,24.00
2010,04,02,07,38,15.70
2010,04,02,07,39,18.30
2010,04,02,07,40,28.60
2010,04,02,07,41,22.00
2010,04,02,07,42,22.50
2010,04,02,07,43,20.00
2010,04,02,07,44,25.20
2010,04,02,07,45,30.10
2010,04,02,07,46,26.30
2010,04,02,07,47,28.00
2010,04,02,07,48,27.00
2010,04,02,07,49,25.30
2010,04,02,07,50,25.20
2010,04,02,07,51,31.90
2010,04,02,07,52,13.70
2010,04,02,07,53,10.60
2010,04,02,07,54,19.80
2010,04,02,07,55,28.60
2010,04,02,07,56,25.10
2010,04,02,07,57,27.00
2010,04,02,07,58,22.20
2010,04,02,07,59,22.90
2010,04,02,08,00,30.20
2010,04,02,08,01,28.30
2010,04,02,08,02,30.00
2010,04,02,08,03,27.40
2010,04,02,08,04,27.60
2010,04,02,08,05,22.30
2010,04,02,08,06,18.40
2010,04,02,08,07,22.30
2010,04,02,08,08,21.00
2010,04,02,08,09,23.70
2010,04,02,08,10,19.60
2010,04,02,08,11,20.80
2010,04,02,08,12,23.40
2010,04,02,12,19,23.50
2010,04,02,12,20,16.50
2010,04,02,17,05,10.90
2010,04,02,17,06,14.90
2010,04,02,17,07,12.20
2010,04,02,17,08,16.60
2010,04,02,17,09,8.10
2010,04,02,17,10,18.80
2010,04,02,17,11,20.20
2010,04,02,17,12,27.00
2010,04,02,17,13,21.20
2010,04,02,17,14,25.30
2010,04,02,17,15,17.80
2010,04,02,17,16,14.00
2010,04,02,17,17,18.70
2010,04,02,17,18,15.00
2010,04,02,17,19,15.20
2010,04,02,17,20,7.20
2010,04,02,17,21,14.00
2010,04,02,17,22,12.90
2010,04,02,17,23,13.70
2010,04,02,17,24,12.10
2010,04,02,17,25,17.80
2010,04,02,17,26,17.30
2010,04,02,17,27,17.40
2010,04,02,17,28,13.50
2010,04,02,17,29,15.90
2010,04,02,17,30,16.80
2010,04,02,17,31,17.20
2010,04,02,17,32,18.40
2010,04,02,17,33,18.50
2010,04,02,17,34,23.30
2010,04,02,17,35,13.70
2010,04,02,17,36,22.10
2010,04,02,17,37,19.20
2010,04,02,17,38,15.90
2010,04,02,17,39,14.60
2010,04,02,17,40,10.20
2010,04,02,17,41,8.50
2010,04,02,17,42,18.30
2010,04,02,17,43,18.10
2010,04,02,17,44,15.20
2010,04,02,17,45,15.40
2010,04,02,17,46,13.90
2010,04,02,17,47,18.30
2010,04,02,17,48,18.10
2010,04,02,17,49,18.60
2010,04,02,17,50,12.20
2010,04,02,17,51,17.80
2010,04,02,17,52,12.00
2010,04,02,17,53,11.80
2010,04,02,17,54,11.90
2010,04,02,17,55,11.60
2010,04,02,17,56,12.40
2010,04,02,17,57,9.30
2010,04,02,17,58,12.30
2010,04,02,17,59,7.80
2010,04,02,18,00,20.40
2010,04,02,18,01,19.70
2010,04,02,18,02,21.30
2010,04,02,18,03,20.30
2010,04,02,18,04,15.00
2010,04,02,18,05,18.70
2010,04,02,18,06,20.10
2010,04,02,18,07,14.50
2010,04,02,18,08,13.50
2010,04,02,18,09,13.70
2010,04,02,18,10,13.90
2010,04,02,18,11,14.70
2010,04,02,18,12,15.20
2010,04,02,18,13,12.40
2010,04,02,18,14,20.30
2010,04,02,18,15,17.80
2010,04,02,18,16,20.00
2010,04,02,18,17,23.30
2010,04,02,18,18,13.60
2010,04,02,18,19,14.20
2010,04,02,18,20,12.70
2010,04,02,18,21,13.60
2010,04,02,18,22,10.80
2010,04,02,18,23,14.60
2010,04,02,18,24,13.40
2010,04,02,18,25,19.70
2010,04,02,18,26,12.90
2010,04,02,18,27,13.40
2010,04,02,18,28,16.20
2010,04,02,18,29,16.00
2010,04,02,18,30,14.30
2010,04,02,18,31,18.50
2010,04,02,18,32,20.50
2010,04,02,18,33,16.30
2010,04,02,18,34,21.30
2010,04,02,18,35,18.50
2010,04,02,18,36,19.10
2010,04,02,18,37,15.00
2010,04,02,18,38,14.90
2010,04,02,18,39,19.00
2010,04,02,18,40,16.30
2010,04,02,18,41,15.60
2010,04,02,18,42,14.10
2010,04,02,18,43,14.90
2010,04,02,18,44,18.30
2010,04,02,18,45,20.40
2010,04,02,18,46,17.30
2010,04,02,18,47,20.20
2010,04,02,18,48,17.60
2010,04,02,18,49,15.10
2010,04,02,18,50,15.50
2010,04,02,18,51,15.90
2010,04,02,18,52,16.60
2010,04,02,18,53,12.80
2010,04,02,18,54,15.10
2010,04,02,18,55,21.80
2010,04,02,18,56,8.80
2010,04,02,18,57,3.60
2010,04,02,18,58,6.70
2010,04,02,18,59,13.10
2010,04,02,19,00,9.10
2010,04,02,19,01,12.30
2010,04,02,19,02,8.70
2010,04,02,19,03,10.30
2010,04,02,19,04,9.80
2010,04,02,19,05,10.40
2010,04,02,19,06,4.60
2010,04,02,19,07,4.70
2010,04,02,19,08,5.90
2010,04,02,19,09,3.80
2010,04,02,19,10,1.90
2010,04,02,19,11,5.50
2010,04,02,19,12,3.60
2010,04,02,19,13,2.80
2010,04,02,19,14,5.20
2010,04,02,19,15,2.20
2010,04,02,19,16,0.50
2010,04,02,19,17,0.40
2010,04,02,19,18,0.60
2010,04,02,19,19,1.20
2010,04,02,19,20,4.80
2010,04,02,19,21,4.20
2010,04,02,19,22,3.50
2010,04,02,19,23,2.20
2010,04,02,19,24,1.20
2010,04,02,19,25,3.20
2010,04,02,19,26,1.10
2010,04,02,19,27,1.50
2010,04,02,19,28,2.30
2010,04,02,19,29,0.80
2010,04,02,19,30,1.90
2010,04,02,19,31,1.70
2010,04,02,19,32,3.60
2010,04,02,19,33,3.70
2010,04,02,19,34,5.10
2010,04,02,19,35,3.00
2010,04,02,19,36,5.60
2010,04,02,19,37,4.30
2010,04,02,19,38,4.70
2010,04,02,19,39,3.00
2010,04,02,19,40,4.00
2010,04,02,19,41,4.00
2010,04,02,19,42,6.10
2010,04,02,19,43,3.50
2010,04,02,19,44,4.70
2010,04,02,19,45,9.10
2010,04,02,19,46,7.10
2010,04,02,19,47,5.90
2010,04,02,19,48,5.20
2010,04,02,19,49,3.70
2010,04,02,19,50,1.60
2010,04,02,19,51,3.50
2010,04,02,19,52,3.90
2010,04,02,19,53,3.10
2010,04,02,19,54,3.10
2010,04,02,19,55,2.40
2010,04,02,19,56,2.90
2010,04,02,19,57,3.10
2010,04,02,19,58,3.90
2010,04,02,19,59,4.60
2010,04,02,20,00,5.80
2010,04,02,20,01,3.30
2010,04,02,20,02,5.30
2010,04,02,20,03,3.10
2010,04,02,20,04,2.50
2010,04,02,20,05,4.60
2010,04,02,20,06,0.90
2010,04,02,20,07,3.60
2010,04,02,20,08,5.20
2010,04,02,20,09,4.10
2010,04,02,20,10,6.50
2010,04,02,20,11,6.80
2010,04,02,20,12,4.70
2010,04,02,20,13,3.10
2010,04,02,20,14,5.50
2010,04,02,20,15,7.20
2010,04,02,20,16,6.10
2010,04,02,20,17,4.30
2010,04,02,20,18,5.40
2010,04,02,20,19,7.20
2010,04,02,20,20,8.10
2010,04,02,20,21,12.10
2010,04,02,20,22,13.00
2010,04,02,20,23,12.90
2010,04,02,20,24,13.50
2010,04,02,20,25,8.30
2010,04,02,20,26,8.10
2010,04,02,20,27,7.50
2010,04,02,20,28,10.80
2010,04,02,20,29,8.20
2010,04,02,20,30,4.30
2010,04,02,20,31,14.00
2010,04,02,20,32,15.60
2010,04,02,20,33,15.90
2010,04,02,20,34,11.70
2010,04,02,20,35,10.50
2010,04,02,20,36,9.70
2010,04,02,20,37,13.90
2010,04,02,20,38,21.60
2010,04,02,20,39,19.70
2010,04,02,20,40,15.00
2010,04,02,20,41,11.90
2010,04,02,20,42,9.10
2010,04,02,20,43,8.90
2010,04,02,20,44,12.10
2010,04,02,20,45,15.40
2010,04,02,20,46,15.60
2010,04,02,20,47,13.00
2010,04,02,20,48,13.30
2010,04,02,20,49,10.10
2010,04,02,20,50,5.50
2010,04,02,20,51,13.00
2010,04,02,20,52,3.10
2010,04,02,20,53,7.20
2010,04,02,20,54,11.00
2010,04,02,20,55,8.50
2010,04,02,20,56,8.90
2010,04,02,20,57,10.90
2010,04,02,20,58,5.60
2010,04,02,20,59,9.40
2010,04,02,21,00,7.00
2010,04,02,21,01,5.20
2010,04,02,21,02,5.10
2010,04,02,21,03,5.60
2010,04,02,21,04,9.60
2010,04,02,21,05,10.60
2010,04,02,21,06,8.50
2010,04,02,21,07,13.50
2010,04,02,21,08,11.30
2010,04,02,21,09,14.20
2010,04,02,21,10,9.70
2010,04,02,21,11,6.10
2010,04,02,21,12,7.20
2010,04,02,21,13,2.70
2010,04,02,21,14,4.80
2010,04,02,21,15,3.50
2010,04,02,21,16,7.20
2010,04,02,21,17,12.00
2010,04,02,21,18,14.40
2010,04,02,21,19,13.70
2010,04,02,21,20,10.80
2010,04,02,21,21,15.90
2010,04,02,21,22,17.70
2010,04,02,21,23,10.50
2010,04,02,21,24,10.40
2010,04,02,21,25,8.40
2010,04,02,21,26,10.50
2010,04,02,21,27,8.40
2010,04,02,21,28,4.00
2010,04,02,21,29,11.30
2010,04,02,21,30,3.90
2010,04,02,21,31,10.40
2010,04,02,21,32,6.60
2010,04,02,21,33,8.40
2010,04,02,21,34,4.40
2010,04,02,21,35,5.80
2010,04,02,21,36,5.50
2010,04,02,21,37,13.40
2010,04,02,21,38,18.70
2010,04,02,21,39,12.40
2010,04,02,21,40,18.40
2010,04,02,21,41,10.30
2010,04,02,21,42,14.60
2010,04,02,21,43,13.40
2010,04,02,21,44,9.10
2010,04,02,21,45,12.00
2010,04,02,21,46,10.50
2010,04,02,21,47,5.10
2010,04,02,21,48,5.30
2010,04,02,21,49,11.00
2010,04,02,21,50,9.70
2010,04,02,21,51,14.30
2010,04,02,21,52,11.80
2010,04,02,21,53,9.60
2010,04,02,21,54,9.10
2010,04,02,21,55,8.00
2010,04,02,21,56,8.20
2010,04,02,21,57,9.20
2010,04,02,21,58,6.60
2010,04,02,21,59,17.70
2010,04,02,22,00,19.00
2010,04,02,22,01,10.50
2010,04,02,22,02,16.80
2010,04,02,22,03,17.90
2010,04,02,22,04,10.10
2010,04,02,22,05,7.30
2010,04,02,22,06,16.10
2010,04,02,22,07,16.70
2010,04,02,22,08,14.00
2010,04,02,22,09,20.30
2010,04,02,22,10,11.70
2010,04,02,22,11,11.00
2010,04,02,22,12,10.90
2010,04,02,22,13,4.80
2010,04,02,22,14,7.30
2010,04,02,22,15,7.30
2010,04,02,22,16,6.10
2010,04,02,22,17,6.00
2010,04,02,22,18,6.80
2010,04,02,22,19,10.60
2010,04,02,22,20,14.20
2010,04,02,22,21,9.20
2010,04,02,22,22,7.70
2010,04,02,22,23,9.00
2010,04,02,22,24,8.40
2010,04,02,22,25,7.70
2010,04,02,22,26,6.00
2010,04,02,22,27,7.20
2010,04,02,22,28,10.10
2010,04,02,22,29,7.60
2010,04,02,22,30,3.70
2010,04,02,22,31,3.50
2010,04,02,22,32,8.70
2010,04,02,22,33,7.20
2010,04,02,22,34,11.20
2010,04,02,22,35,5.90
2010,04,02,22,36,11.80
2010,04,02,22,37,8.70
2010,04,02,22,38,5.10
2010,04,02,22,39,8.30
2010,04,02,22,40,7.70
2010,04,02,22,41,12.90
2010,04,02,22,42,7.60
2010,04,02,22,43,11.70
2010,04,02,22,44,5.20
2010,04,02,22,45,10.50
2010,04,02,22,46,12.50
2010,04,02,22,47,7.30
2010,04,02,22,48,14.30
2010,04,02,22,49,15.60
2010,04,02,22,50,10.40
2010,04,02,22,51,8.90
2010,04,02,22,52,9.20
2010,04,02,22,53,11.40
2010,04,02,22,54,13.20
2010,04,02,22,55,16.10
2010,04,02,22,56,9.70
2010,04,02,22,57,8.00
2010,04,02,22,58,10.40
2010,04,02,22,59,13.70
2010,04,02,23,00,14.10
2010,04,02,23,01,8.70
2010,04,02,23,02,13.20
2010,04,02,23,03,12.50
2010,04,02,23,04,13.20
2010,04,02,23,05,11.50
2010,04,02,23,06,13.00
2010,04,02,23,07,8.60
2010,04,02,23,08,8.90
2010,04,02,23,09,9.70
2010,04,02,23,10,8.70
2010,04,02,23,11,14.20
2010,04,02,23,12,9.10
2010,04,02,23,13,9.70
2010,04,02,23,14,5.30
2010,04,02,23,15,5.10
2010,04,02,23,16,9.20
2010,04,02,23,17,13.10
2010,04,02,23,18,12.20
2010,04,02,23,19,13.30
2010,04,02,23,20,8.10
2010,04,02,23,21,9.40
2010,04,02,23,22,8.20
2010,04,02,23,23,8.50
2010,04,02,23,24,9.40
2010,04,02,23,25,14.70
2010,04,02,23,26,7.20
2010,04,02,23,27,2.30
2010,04,02,23,28,7.60
2010,04,02,23,29,2.50
2010,04,02,23,30,4.20
2010,04,02,23,31,12.90
2010,04,02,23,32,9.30
2010,04,02,23,33,7.20
2010,04,02,23,34,5.20
2010,04,02,23,35,5.70
2010,04,02,23,36,15.10
2010,04,02,23,37,10.50
2010,04,02,23,38,7.70
2010,04,02,23,39,11.40
2010,04,02,23,40,10.80
2010,04,02,23,41,9.00
2010,04,02,23,42,11.30
2010,04,02,23,43,8.90
2010,04,02,23,44,8.70
2010,04,02,23,45,12.20
2010,04,02,23,46,10.10
2010,04,02,23,47,6.20
2010,04,02,23,48,8.70
2010,04,02,23,49,8.80
2010,04,02,23,50,9.10
2010,04,02,23,51,11.80
2010,04,02,23,52,4.60
2010,04,02,23,53,3.70
2010,04,02,23,54,5.00
2010,04,02,23,55,3.80
2010,04,02,23,56,3.70
2010,04,02,23,57,3.20
2010,04,02,23,58,4.00
2010,04,02,23,59,3.50
